Wetterdaten: Dienstag, 05.04.2016
Datum Zeit Auen-Temp. Temp gefhlt Luftfeuchte Luftdruck Regen Wind Richtung Richtung Sonnenschein Taupunkt Windben
05.04.2016 00:00 10,6 C 10,5 C 66 % 1007,4 hPa 0,0 mm 0,0 km/h (0 Bft) N-NW 337 0 min 4,5 C 0,0 km/h (0 Bft)
05.04.2016 00:05 11,5 C 11,1 C 64 % 1007,4 hPa 0,0 mm 0,0 km/h (0 Bft) O-SO 112 0 min 4,9 C 0,0 km/h (0 Bft)
05.04.2016 00:10 11,2 C 10,9 C 63 % 1007,3 hPa 0,0 mm 0,0 km/h (0 Bft) O 90 0 min 4,4 C 0,0 km/h (0 Bft)
05.04.2016 00:15 11,6 C 11,3 C 62 % 1007,3 hPa 0,0 mm 0,0 km/h (0 Bft) O-NO 67 0 min 4,6 C 0,0 km/h (0 Bft)
05.04.2016 00:20 11,6 C 11,3 C 62 % 1007,3 hPa 0,0 mm 0,0 km/h (0 Bft) SO 135 0 min 4,6 C 0,0 km/h (0 Bft)
05.04.2016 00:25 11,3 C 11,1 C 61 % 1007,3 hPa 0,0 mm 0,0 km/h (0 Bft) O-NO 67 0 min 4,1 C 0,0 km/h (0 Bft)
05.04.2016 00:28 11,3 C 11,1 C 61 % 1007,3 hPa 0,0 mm 0,0 km/h (0 Bft) O-NO 67 0 min 4,1 C 0,0 km/h (0 Bft)
05.04.2016 00:30 11,1 C 10,9 C 61 % 1007,4 hPa 0,0 mm 0,0 km/h (0 Bft) O-NO 67 0 min 3,9 C 0,0 km/h (0 Bft)
05.04.2016 00:35 11,6 C 11,3 C 60 % 1007,4 hPa 0,0 mm 0,0 km/h (0 Bft) O-NO 67 0 min 4,1 C 0,0 km/h (0 Bft)
05.04.2016 00:40 11,1 C 11,0 C 59 % 1007,4 hPa 0,0 mm 0,0 km/h (0 Bft) O-SO 112 0 min 3,4 C 0,0 km/h (0 Bft)
05.04.2016 00:45 11,5 C 11,3 C 59 % 1007,4 hPa 0,0 mm 0,6 km/h (0 Bft) O-SO 112 0 min 3,8 C 0,0 km/h (0 Bft)
05.04.2016 00:50 11,4 C 11,2 C 59 % 1007,2 hPa 0,0 mm 0,6 km/h (0 Bft) O-NO 67 0 min 3,7 C 3,0 km/h (1 Bft)
05.04.2016 00:55 11,3 C 11,1 C 59 % 1007,2 hPa 0,0 mm 0,3 km/h (0 Bft) O 90 0 min 3,6 C 0,0 km/h (0 Bft)
05.04.2016 01:00 11,5 C 11,3 C 59 % 1007,2 hPa 0,0 mm 0,0 km/h (0 Bft) O 90 0 min 3,8 C 0,0 km/h (0 Bft)
05.04.2016 01:05 11,2 C 11,0 C 59 % 1007,2 hPa 0,0 mm 0,0 km/h (0 Bft) O-SO 112 0 min 3,5 C 0,0 km/h (0 Bft)
05.04.2016 01:10 10,8 C 10,7 C 59 % 1007,2 hPa 0,0 mm 0,0 km/h (0 Bft) O-SO 112 0 min 3,1 C 0,0 km/h (0 Bft)
05.04.2016 01:15 10,3 C 10,2 C 59 % 1007,2 hPa 0,0 mm 0,0 km/h (0 Bft) N-NW 337 0 min 2,6 C 6,6 km/h (2 Bft)
05.04.2016 01:20 9,9 C 9,8 C 60 % 1007,2 hPa 0,0 mm 1,2 km/h (1 Bft) NW 315 0 min 2,5 C 0,0 km/h (0 Bft)
05.04.2016 01:25 9,2 C 9,2 C 62 % 1007,2 hPa 0,0 mm 1,5 km/h (1 Bft) NW 315 0 min 2,3 C 0,0 km/h (0 Bft)
05.04.2016 01:30 9,0 C 8,9 C 64 % 1007,2 hPa 0,0 mm 0,3 km/h (0 Bft) NO 45 0 min 2,6 C 0,0 km/h (0 Bft)
05.04.2016 01:35 8,7 C 8,5 C 66 % 1007,2 hPa 0,0 mm 0,3 km/h (0 Bft) O-NO 67 0 min 2,7 C 3,3 km/h (1 Bft)
05.04.2016 01:40 8,9 C 8,6 C 69 % 1007,2 hPa 0,0 mm 1,5 km/h (1 Bft) O 90 0 min 3,5 C 0,0 km/h (0 Bft)
05.04.2016 01:45 9,1 C 8,7 C 68 % 1007,2 hPa 0,0 mm 1,8 km/h (1 Bft) O 90 0 min 3,5 C 3,6 km/h (1 Bft)
05.04.2016 01:50 8,8 C 8,5 C 67 % 1007,1 hPa 0,0 mm 0,3 km/h (0 Bft) NO 45 0 min 3,0 C 0,0 km/h (0 Bft)
05.04.2016 01:55 8,2 C 8,1 C 66 % 1007,1 hPa 0,0 mm 0,3 km/h (0 Bft) N-NW 337 0 min 2,2 C 0,0 km/h (0 Bft)
05.04.2016 02:00 7,9 C 7,7 C 67 % 1007,1 hPa 0,0 mm 0,0 km/h (0 Bft) O-NO 67 0 min 2,2 C 0,0 km/h (0 Bft)
05.04.2016 02:05 7,8 C 7,5 C 69 % 1007,1 hPa 0,0 mm 0,0 km/h (0 Bft) NO 45 0 min 2,5 C 0,0 km/h (0 Bft)
05.04.2016 02:10 7,5 C 7,3 C 69 % 1006,9 hPa 0,0 mm 0,0 km/h (0 Bft) O-NO 67 0 min 2,2 C 0,0 km/h (0 Bft)
05.04.2016 02:15 7,7 C 7,4 C 70 % 1006,9 hPa 0,0 mm 0,0 km/h (0 Bft) O-NO 67 0 min 2,6 C 0,0 km/h (0 Bft)
05.04.2016 02:20 7,6 C 7,3 C 70 % 1006,9 hPa 0,0 mm 0,9 km/h (0 Bft) W 270 0 min 2,5 C 0,0 km/h (0 Bft)
05.04.2016 02:25 7,9 C 7,5 C 71 % 1006,9 hPa 0,0 mm 0,9 km/h (0 Bft) O-SO 112 0 min 3,0 C 0,0 km/h (0 Bft)
05.04.2016 02:30 7,8 C 7,5 C 70 % 1006,9 hPa 0,0 mm 0,0 km/h (0 Bft) NO 45 0 min 2,7 C 0,0 km/h (0 Bft)
05.04.2016 02:35 7,1 C 7,0 C 70 % 1006,9 hPa 0,0 mm 0,0 km/h (0 Bft) NW 315 0 min 2,0 C 0,0 km/h (0 Bft)
05.04.2016 02:40 6,8 C 6,7 C 70 % 1006,9 hPa 0,0 mm 0,0 km/h (0 Bft) O-NO 67 0 min 1,7 C 0,0 km/h (0 Bft)
05.04.2016 02:45 6,6 C 6,4 C 71 % 1006,9 hPa 0,0 mm 0,0 km/h (0 Bft) O-NO 67 0 min 1,7 C 0,0 km/h (0 Bft)
05.04.2016 02:50 6,6 C 6,3 C 72 % 1006,8 hPa 0,0 mm 0,0 km/h (0 Bft) O 90 0 min 1,9 C 0,0 km/h (0 Bft)
05.04.2016 02:55 6,7 C 6,4 C 73 % 1006,8 hPa 0,0 mm 0,9 km/h (0 Bft) N-NO 22 0 min 2,2 C 8,3 km/h (2 Bft)
05.04.2016 03:00 6,7 C 6,4 C 76 % 1006,8 hPa 0,0 mm 1,2 km/h (1 Bft) O-SO 112 0 min 2,8 C 3,0 km/h (1 Bft)
05.04.2016 03:05 7,1 C 6,8 C 70 % 1006,8 hPa 0,0 mm 1,5 km/h (1 Bft) O-SO 112 0 min 2,0 C 0,0 km/h (0 Bft)
05.04.2016 03:10 7,0 C 6,8 C 70 % 1006,6 hPa 0,0 mm 0,3 km/h (0 Bft) N-NO 22 0 min 1,9 C 0,0 km/h (0 Bft)
05.04.2016 03:15 6,9 C 6,9 C 71 % 1006,6 hPa 0,0 mm 0,6 km/h (0 Bft) O 90 0 min 2,0 C 0,0 km/h (0 Bft)
05.04.2016 03:20 7,2 C 7,0 C 71 % 1006,6 hPa 0,0 mm 0,6 km/h (0 Bft) SO 135 0 min 2,3 C 3,0 km/h (1 Bft)
05.04.2016 03:25 7,8 C 7,5 C 71 % 1006,6 hPa 0,0 mm 1,8 km/h (1 Bft) NW 315 0 min 2,9 C 3,9 km/h (1 Bft)
05.04.2016 03:28 6,8 C 6,8 C 70 % 1006,4 hPa 0,0 mm 3,0 km/h (1 Bft) S-SW 202 0 min 1,7 C 3,3 km/h (1 Bft)
05.04.2016 03:29 6,8 C 6,8 C 70 % 1006,4 hPa 0,0 mm 3,0 km/h (1 Bft) S-SW 202 0 min 1,7 C 3,3 km/h (1 Bft)
05.04.2016 03:30 6,8 C 6,8 C 70 % 1006,4 hPa 0,0 mm 3,0 km/h (1 Bft) S-SW 202 0 min 1,7 C 3,3 km/h (1 Bft)
05.04.2016 03:35 5,9 C 6,1 C 73 % 1006,4 hPa 0,0 mm 1,2 km/h (1 Bft) SO 135 0 min 1,4 C 0,0 km/h (0 Bft)
05.04.2016 03:40 5,7 C 5,7 C 73 % 1006,4 hPa 0,0 mm 0,3 km/h (0 Bft) W 270 0 min 1,2 C 3,3 km/h (1 Bft)
05.04.2016 03:45 6,8 C 6,5 C 71 % 1006,4 hPa 0,0 mm 0,9 km/h (0 Bft) S 180 0 min 1,9 C 4,2 km/h (1 Bft)
05.04.2016 03:50 6,9 C 6,7 C 71 % 1006,3 hPa 0,0 mm 1,2 km/h (1 Bft) S-SO 157 0 min 2,0 C 3,0 km/h (1 Bft)
05.04.2016 03:55 7,9 C 7,8 C 70 % 1006,3 hPa 0,0 mm 3,6 km/h (1 Bft) SO 135 0 min 2,8 C 6,6 km/h (2 Bft)
05.04.2016 04:00 7,2 C 7,3 C 70 % 1006,3 hPa 0,0 mm 4,2 km/h (1 Bft) W 270 0 min 2,1 C 3,6 km/h (1 Bft)
05.04.2016 04:05 5,9 C 6,5 C 71 % 1006,3 hPa 0,0 mm 2,4 km/h (1 Bft) S-SO 157 0 min 1,1 C 3,9 km/h (1 Bft)
05.04.2016 04:10 5,9 C 6,4 C 73 % 1006,1 hPa 0,0 mm 1,2 km/h (1 Bft) O-NO 67 0 min 1,4 C 0,0 km/h (0 Bft)
05.04.2016 04:15 5,6 C 5,8 C 73 % 1006,1 hPa 0,0 mm 1,2 km/h (1 Bft) NW 315 0 min 1,2 C 5,7 km/h (1 Bft)
05.04.2016 04:20 5,4 C 5,4 C 75 % 1006,1 hPa 0,0 mm 1,5 km/h (1 Bft) S-SO 157 0 min 1,3 C 0,0 km/h (0 Bft)
05.04.2016 04:25 6,1 C 5,8 C 77 % 1006,1 hPa 0,0 mm 3,3 km/h (1 Bft) S-SO 157 0 min 2,4 C 3,6 km/h (1 Bft)
05.04.2016 04:30 6,4 C 6,2 C 72 % 1006,1 hPa 0,0 mm 3,6 km/h (1 Bft) S-SO 157 0 min 1,7 C 5,7 km/h (1 Bft)
05.04.2016 04:35 6,2 C 6,1 C 75 % 1006,1 hPa 0,0 mm 2,1 km/h (1 Bft) W-NW 292 0 min 2,1 C 3,6 km/h (1 Bft)
05.04.2016 04:40 5,9 C 5,9 C 75 % 1006,1 hPa 0,0 mm 2,1 km/h (1 Bft) NO 45 0 min 1,8 C 0,0 km/h (0 Bft)
05.04.2016 04:45 5,5 C 5,4 C 76 % 1006,1 hPa 0,0 mm 1,5 km/h (1 Bft) O-NO 67 0 min 1,6 C 10,4 km/h (2 Bft)
05.04.2016 04:50 5,7 C 5,5 C 76 % 1005,9 hPa 0,0 mm 0,3 km/h (0 Bft) SO 135 0 min 1,8 C 3,3 km/h (1 Bft)
05.04.2016 04:55 5,6 C 5,5 C 76 % 1005,9 hPa 0,0 mm 1,8 km/h (1 Bft) O 90 0 min 1,7 C 0,0 km/h (0 Bft)
05.04.2016 05:00 5,4 C 5,3 C 76 % 1005,9 hPa 0,0 mm 1,8 km/h (1 Bft) N-NO 22 0 min 1,5 C 0,0 km/h (0 Bft)
05.04.2016 05:05 5,3 C 5,2 C 76 % 1005,9 hPa 0,0 mm 0,0 km/h (0 Bft) N-NW 337 0 min 1,4 C 0,0 km/h (0 Bft)
05.04.2016 05:10 5,2 C 5,1 C 76 % 1006,1 hPa 0,0 mm 0,0 km/h (0 Bft) O-NO 67 0 min 1,3 C 0,0 km/h (0 Bft)
05.04.2016 05:15 5,2 C 5,1 C 78 % 1006,1 hPa 0,0 mm 0,3 km/h (0 Bft) S-SO 157 0 min 1,7 C 0,0 km/h (0 Bft)
05.04.2016 05:20 5,6 C 5,3 C 79 % 1006,1 hPa 0,0 mm 0,3 km/h (0 Bft) W-NW 292 0 min 2,3 C 0,0 km/h (0 Bft)
05.04.2016 05:25 5,7 C 5,4 C 79 % 1006,1 hPa 0,0 mm 0,9 km/h (0 Bft) O-NO 67 0 min 2,3 C 0,0 km/h (0 Bft)
05.04.2016 05:30 5,4 C 5,2 C 79 % 1006,0 hPa 0,0 mm 0,9 km/h (0 Bft) W-NW 292 0 min 2,1 C 0,0 km/h (0 Bft)
05.04.2016 05:35 5,3 C 5,1 C 78 % 1006,0 hPa 0,0 mm 0,3 km/h (0 Bft) O 90 0 min 1,8 C 0,0 km/h (0 Bft)
05.04.2016 05:40 5,0 C 4,9 C 78 % 1006,0 hPa 0,0 mm 0,3 km/h (0 Bft) W-NW 292 0 min 1,5 C 0,0 km/h (0 Bft)
05.04.2016 05:45 4,3 C 4,3 C 78 % 1006,0 hPa 0,0 mm 0,0 km/h (0 Bft) O 90 0 min 0,8 C 0,0 km/h (0 Bft)
05.04.2016 05:50 4,5 C 4,4 C 79 % 1006,1 hPa 0,0 mm 0,0 km/h (0 Bft) SO 135 0 min 1,2 C 0,0 km/h (0 Bft)
05.04.2016 05:55 4,4 C 4,3 C 79 % 1006,1 hPa 0,0 mm 0,0 km/h (0 Bft) W-SW 247 0 min 1,1 C 0,0 km/h (0 Bft)
05.04.2016 06:00 4,6 C 4,5 C 79 % 1006,1 hPa 0,0 mm 0,6 km/h (0 Bft) W-SW 247 0 min 1,3 C 0,0 km/h (0 Bft)
05.04.2016 06:05 4,8 C 4,6 C 79 % 1006,1 hPa 0,0 mm 0,6 km/h (0 Bft) W 270 0 min 1,5 C 0,0 km/h (0 Bft)
05.04.2016 06:10 4,6 C 4,5 C 79 % 1005,9 hPa 0,0 mm 0,0 km/h (0 Bft) SW 225 0 min 1,3 C 4,2 km/h (1 Bft)
05.04.2016 06:15 4,4 C 4,6 C 79 % 1005,9 hPa 0,0 mm 0,0 km/h (0 Bft) O-NO 67 0 min 1,1 C 0,0 km/h (0 Bft)
05.04.2016 06:20 4,9 C 5,1 C 76 % 1005,9 hPa 0,0 mm 0,0 km/h (0 Bft) O-NO 67 0 min 1,0 C 0,0 km/h (0 Bft)
05.04.2016 06:25 6,0 C 6,4 C 76 % 1005,9 hPa 0,0 mm 0,6 km/h (0 Bft) NW 315 0 min 2,1 C 0,0 km/h (0 Bft)
05.04.2016 06:28 6,0 C 6,7 C 79 % 1006,2 hPa 0,0 mm 0,6 km/h (0 Bft) N-NO 22 0 min 2,6 C 0,0 km/h (0 Bft)
05.04.2016 06:30 6,0 C 6,7 C 79 % 1006,2 hPa 0,0 mm 0,6 km/h (0 Bft) N-NO 22 0 min 2,6 C 0,0 km/h (0 Bft)
05.04.2016 06:35 6,5 C 7,1 C 79 % 1006,2 hPa 0,0 mm 0,0 km/h (0 Bft) NO 45 0 min 3,1 C 0,0 km/h (0 Bft)
05.04.2016 06:40 7,2 C 7,5 C 74 % 1006,2 hPa 0,0 mm 0,3 km/h (0 Bft) SW 225 0 min 2,9 C 0,0 km/h (0 Bft)
05.04.2016 06:45 8,2 C 8,2 C 77 % 1006,2 hPa 0,0 mm 0,3 km/h (0 Bft) N-NO 22 0 min 4,4 C 0,0 km/h (0 Bft)
05.04.2016 06:50 8,6 C 8,5 C 76 % 1006,2 hPa 0,0 mm 0,3 km/h (0 Bft) O-NO 67 0 min 4,6 C 0,0 km/h (0 Bft)
05.04.2016 06:55 8,6 C 8,6 C 73 % 1006,2 hPa 0,0 mm 0,3 km/h (0 Bft) N-NW 337 0 min 4,0 C 0,0 km/h (0 Bft)
05.04.2016 07:00 9,0 C 9,0 C 72 % 1006,2 hPa 0,0 mm 0,3 km/h (0 Bft) O-SO 112 0 min 4,2 C 0,0 km/h (0 Bft)
05.04.2016 07:05 8,9 C 9,1 C 70 % 1006,2 hPa 0,0 mm 0,3 km/h (0 Bft) W-NW 292 0 min 3,7 C 3,3 km/h (1 Bft)
05.04.2016 07:10 9,4 C 9,4 C 69 % 1006,8 hPa 0,0 mm 0,0 km/h (0 Bft) S-SO 157 0 min 4,0 C 0,0 km/h (0 Bft)
05.04.2016 07:15 9,5 C 9,7 C 68 % 1006,8 hPa 0,0 mm 0,0 km/h (0 Bft) NW 315 0 min 3,9 C 0,0 km/h (0 Bft)
05.04.2016 07:20 9,8 C 9,9 C 68 % 1006,8 hPa 0,0 mm 0,3 km/h (0 Bft) W-SW 247 0 min 4,2 C 0,0 km/h (0 Bft)
05.04.2016 07:25 10,1 C 10,3 C 66 % 1006,8 hPa 0,0 mm 0,3 km/h (0 Bft) NW 315 0 min 4,0 C 0,0 km/h (0 Bft)
05.04.2016 07:30 10,3 C 10,5 C 66 % 1006,4 hPa 0,0 mm 0,3 km/h (0 Bft) N-NO 22 0 min 4,2 C 0,0 km/h (0 Bft)
05.04.2016 07:35 10,5 C 10,8 C 65 % 1006,4 hPa 0,0 mm 0,0 km/h (0 Bft) O-NO 67 0 min 4,2 C 0,0 km/h (0 Bft)
05.04.2016 07:40 10,5 C 11,1 C 64 % 1006,4 hPa 0,0 mm 0,0 km/h (0 Bft) NO 45 0 min 4,0 C 0,0 km/h (0 Bft)
05.04.2016 07:45 10,6 C 11,3 C 64 % 1006,4 hPa 0,0 mm 0,0 km/h (0 Bft) SW 225 0 min 4,1 C 0,0 km/h (0 Bft)
05.04.2016 07:50 10,5 C 11,6 C 63 % 1006,4 hPa 0,0 mm 0,0 km/h (0 Bft) S-SO 157 0 min 3,8 C 0,0 km/h (0 Bft)
05.04.2016 07:55 10,7 C 11,6 C 63 % 1006,4 hPa 0,0 mm 0,0 km/h (0 Bft) O-SO 112 0 min 3,9 C 0,0 km/h (0 Bft)
05.04.2016 08:00 10,7 C 11,6 C 63 % 1006,4 hPa 0,0 mm 0,3 km/h (0 Bft) N-NO 22 0 min 3,9 C 0,0 km/h (0 Bft)
05.04.2016 08:05 11,1 C 11,6 C 62 % 1006,4 hPa 0,0 mm 0,3 km/h (0 Bft) O-NO 67 0 min 4,1 C 0,0 km/h (0 Bft)
05.04.2016 08:10 11,1 C 11,6 C 62 % 1006,6 hPa 0,0 mm 0,0 km/h (0 Bft) O-NO 67 0 min 4,1 C 0,0 km/h (0 Bft)
05.04.2016 08:15 11,4 C 11,8 C 62 % 1006,6 hPa 0,0 mm 0,3 km/h (0 Bft) NO 45 0 min 4,4 C 0,0 km/h (0 Bft)
05.04.2016 08:20 11,5 C 12,0 C 61 % 1006,6 hPa 0,0 mm 0,3 km/h (0 Bft) O 90 0 min 4,2 C 0,0 km/h (0 Bft)
05.04.2016 08:25 11,3 C 12,2 C 61 % 1006,6 hPa 0,0 mm 0,0 km/h (0 Bft) O-NO 67 0 min 4,1 C 0,0 km/h (0 Bft)
05.04.2016 08:30 11,6 C 12,5 C 61 % 1006,7 hPa 0,0 mm 0,0 km/h (0 Bft) O 90 0 min 4,3 C 0,0 km/h (0 Bft)
05.04.2016 08:35 11,9 C 12,9 C 61 % 1006,7 hPa 0,0 mm 0,3 km/h (0 Bft) NW 315 0 min 4,6 C 0,0 km/h (0 Bft)
05.04.2016 08:40 12,2 C 13,3 C 60 % 1006,7 hPa 0,0 mm 0,6 km/h (0 Bft) NO 45 0 min 4,7 C 0,0 km/h (0 Bft)
05.04.2016 08:45 12,6 C 14,4 C 61 % 1006,7 hPa 0,0 mm 0,3 km/h (0 Bft) O-NO 67 0 min 5,3 C 0,0 km/h (0 Bft)
05.04.2016 08:50 13,0 C 15,2 C 60 % 1006,8 hPa 0,0 mm 0,0 km/h (0 Bft) O-SO 112 0 min 5,4 C 0,0 km/h (0 Bft)
05.04.2016 08:55 13,9 C 17,0 C 59 % 1006,8 hPa 0,0 mm 0,0 km/h (0 Bft) N 360 5 min 6,0 C 0,0 km/h (0 Bft)
05.04.2016 09:00 14,5 C 18,3 C 59 % 1006,8 hPa 0,0 mm 0,0 km/h (0 Bft) W 270 5 min 6,6 C 0,0 km/h (0 Bft)
05.04.2016 09:05 14,8 C 19,2 C 58 % 1006,8 hPa 0,0 mm 0,6 km/h (0 Bft) NW 315 5 min 6,6 C 4,5 km/h (1 Bft)
05.04.2016 09:10 14,9 C 19,2 C 57 % 1007,1 hPa 0,0 mm 1,2 km/h (1 Bft) N-NO 22 5 min 6,5 C 0,0 km/h (0 Bft)
05.04.2016 09:15 15,7 C 20,3 C 56 % 1007,1 hPa 0,0 mm 1,5 km/h (1 Bft) O-SO 112 5 min 6,9 C 0,0 km/h (0 Bft)
05.04.2016 09:20 15,7 C 20,3 C 56 % 1007,1 hPa 0,0 mm 1,2 km/h (1 Bft) O-NO 67 5 min 6,9 C 0,0 km/h (0 Bft)
05.04.2016 09:25 16,2 C 20,8 C 54 % 1007,1 hPa 0,0 mm 1,5 km/h (1 Bft) N 360 5 min 6,9 C 0,0 km/h (0 Bft)
05.04.2016 09:28 16,5 C 21,1 C 53 % 1007,2 hPa 0,0 mm 0,6 km/h (0 Bft) O-NO 67 3 min 6,9 C 5,7 km/h (1 Bft)
05.04.2016 09:31 16,5 C 21,1 C 53 % 1007,2 hPa 0,0 mm 0,6 km/h (0 Bft) O-NO 67 3 min 6,9 C 5,7 km/h (1 Bft)
05.04.2016 09:35 16,5 C 20,8 C 53 % 1007,2 hPa 0,0 mm 0,9 km/h (0 Bft) O-NO 67 4 min 6,9 C 0,0 km/h (0 Bft)
05.04.2016 09:40 16,6 C 20,7 C 52 % 1007,2 hPa 0,0 mm 2,4 km/h (1 Bft) S-SW 202 5 min 6,7 C 13,1 km/h (3 Bft)
05.04.2016 09:45 16,8 C 20,9 C 51 % 1007,2 hPa 0,0 mm 6,0 km/h (2 Bft) W-SW 247 5 min 6,6 C 14,0 km/h (3 Bft)
05.04.2016 09:50 16,7 C 20,7 C 50 % 1007,7 hPa 0,0 mm 7,5 km/h (2 Bft) W-SW 247 5 min 6,2 C 8,9 km/h (2 Bft)
05.04.2016 09:55 16,5 C 19,9 C 51 % 1007,7 hPa 0,0 mm 5,4 km/h (1 Bft) W 270 5 min 6,3 C 5,4 km/h (1 Bft)
05.04.2016 10:00 16,3 C 19,5 C 50 % 1007,7 hPa 0,0 mm 4,8 km/h (1 Bft) W-SW 247 5 min 5,9 C 8,0 km/h (2 Bft)
05.04.2016 10:05 16,0 C 18,7 C 50 % 1007,7 hPa 0,0 mm 5,4 km/h (1 Bft) W-SW 247 5 min 5,6 C 3,9 km/h (1 Bft)
05.04.2016 10:10 15,9 C 18,3 C 52 % 1007,9 hPa 0,0 mm 5,1 km/h (1 Bft) SW 225 0 min 6,1 C 4,5 km/h (1 Bft)
05.04.2016 10:15 15,9 C 18,1 C 53 % 1007,9 hPa 0,0 mm 4,2 km/h (1 Bft) W 270 0 min 6,3 C 7,2 km/h (2 Bft)
05.04.2016 10:20 16,0 C 18,3 C 50 % 1007,9 hPa 0,0 mm 3,9 km/h (1 Bft) W-SW 247 0 min 5,6 C 6,3 km/h (2 Bft)
05.04.2016 10:25 16,1 C 18,9 C 50 % 1007,9 hPa 0,0 mm 4,5 km/h (1 Bft) W 270 0 min 5,7 C 8,6 km/h (2 Bft)
05.04.2016 10:30 16,4 C 19,6 C 50 % 1008,2 hPa 0,0 mm 5,1 km/h (1 Bft) O 90 0 min 6,0 C 5,7 km/h (1 Bft)
05.04.2016 10:35 16,6 C 19,8 C 50 % 1008,2 hPa 0,0 mm 5,7 km/h (1 Bft) W 270 5 min 6,1 C 14,9 km/h (3 Bft)
05.04.2016 10:40 16,6 C 19,9 C 50 % 1008,2 hPa 0,0 mm 6,6 km/h (2 Bft) W-SW 247 5 min 6,1 C 10,4 km/h (2 Bft)
05.04.2016 10:45 16,7 C 19,9 C 50 % 1008,2 hPa 0,0 mm 6,9 km/h (2 Bft) W-SW 247 0 min 6,2 C 7,2 km/h (2 Bft)
05.04.2016 10:50 16,9 C 20,1 C 50 % 1008,6 hPa 0,0 mm 6,6 km/h (2 Bft) W-SW 247 5 min 6,4 C 8,9 km/h (2 Bft)
05.04.2016 10:55 17,0 C 20,4 C 49 % 1008,6 hPa 0,0 mm 6,6 km/h (2 Bft) W-SW 247 5 min 6,2 C 17,6 km/h (3 Bft)
05.04.2016 11:00 17,2 C 20,9 C 49 % 1008,6 hPa 0,0 mm 6,6 km/h (2 Bft) N-NW 337 5 min 6,4 C 14,3 km/h (3 Bft)
05.04.2016 11:05 17,2 C 21,2 C 49 % 1008,6 hPa 0,0 mm 6,3 km/h (2 Bft) W 270 5 min 6,4 C 6,3 km/h (2 Bft)
05.04.2016 11:10 17,3 C 21,2 C 49 % 1008,9 hPa 0,0 mm 6,0 km/h (2 Bft) W-SW 247 5 min 6,5 C 8,9 km/h (2 Bft)
05.04.2016 11:15 17,3 C 21,1 C 49 % 1008,9 hPa 0,0 mm 5,1 km/h (1 Bft) W-SW 247 5 min 6,5 C 9,5 km/h (2 Bft)
05.04.2016 11:20 17,2 C 20,8 C 49 % 1008,9 hPa 0,0 mm 5,4 km/h (1 Bft) NW 315 5 min 6,4 C 6,3 km/h (2 Bft)
05.04.2016 11:25 17,2 C 20,7 C 49 % 1008,9 hPa 0,0 mm 4,8 km/h (1 Bft) W-SW 247 5 min 6,4 C 3,9 km/h (1 Bft)
05.04.2016 11:30 17,2 C 20,4 C 49 % 1009,1 hPa 0,0 mm 6,0 km/h (2 Bft) W-NW 292 0 min 6,4 C 7,5 km/h (2 Bft)
05.04.2016 11:35 17,4 C 20,7 C 49 % 1009,1 hPa 0,0 mm 6,3 km/h (2 Bft) W 270 0 min 6,6 C 8,3 km/h (2 Bft)
05.04.2016 11:40 17,6 C 20,9 C 49 % 1009,1 hPa 0,0 mm 5,4 km/h (1 Bft) N-NO 22 0 min 6,8 C 6,3 km/h (2 Bft)
05.04.2016 11:45 18,0 C 21,8 C 49 % 1009,1 hPa 0,0 mm 3,9 km/h (1 Bft) N-NW 337 0 min 7,1 C 0,0 km/h (0 Bft)
05.04.2016 11:50 18,2 C 22,3 C 49 % 1009,0 hPa 0,0 mm 3,0 km/h (1 Bft) N 360 5 min 7,3 C 5,7 km/h (1 Bft)
05.04.2016 11:55 18,4 C 22,8 C 49 % 1009,0 hPa 0,0 mm 3,0 km/h (1 Bft) NW 315 5 min 7,5 C 4,8 km/h (1 Bft)
05.04.2016 12:00 18,4 C 22,4 C 48 % 1009,0 hPa 0,0 mm 4,5 km/h (1 Bft) NW 315 5 min 7,2 C 8,3 km/h (2 Bft)
05.04.2016 12:05 18,4 C 22,0 C 48 % 1009,0 hPa 0,0 mm 6,3 km/h (2 Bft) W 270 5 min 7,2 C 0,0 km/h (0 Bft)
05.04.2016 12:10 18,3 C 21,7 C 48 % 1009,3 hPa 0,0 mm 6,3 km/h (2 Bft) W-SW 247 5 min 7,1 C 5,1 km/h (1 Bft)
05.04.2016 12:15 18,4 C 21,5 C 48 % 1009,3 hPa 0,0 mm 6,9 km/h (2 Bft) W-NW 292 0 min 7,2 C 3,9 km/h (1 Bft)
05.04.2016 12:20 18,6 C 21,9 C 48 % 1009,3 hPa 0,0 mm 7,2 km/h (2 Bft) N-NW 337 0 min 7,4 C 8,0 km/h (2 Bft)
05.04.2016 12:25 18,8 C 22,1 C 48 % 1009,3 hPa 0,0 mm 6,0 km/h (2 Bft) N-NO 22 0 min 7,6 C 6,9 km/h (2 Bft)
05.04.2016 12:30 18,9 C 22,4 C 48 % 1009,3 hPa 0,0 mm 6,6 km/h (2 Bft) N-NW 337 0 min 7,6 C 5,7 km/h (1 Bft)
05.04.2016 12:32 18,9 C 22,4 C 48 % 1009,3 hPa 0,0 mm 6,6 km/h (2 Bft) N-NW 337 0 min 7,6 C 5,7 km/h (1 Bft)
05.04.2016 12:35 19,3 C 23,7 C 48 % 1009,3 hPa 0,0 mm 3,9 km/h (1 Bft) S 180 3 min 8,0 C 4,5 km/h (1 Bft)
05.04.2016 12:40 19,2 C 24,3 C 47 % 1009,3 hPa 0,0 mm 4,2 km/h (1 Bft) SW 225 5 min 7,6 C 8,9 km/h (2 Bft)
05.04.2016 12:45 19,3 C 24,1 C 47 % 1009,3 hPa 0,0 mm 7,7 km/h (2 Bft) N-NW 337 5 min 7,7 C 5,4 km/h (1 Bft)
05.04.2016 12:50 19,8 C 24,3 C 47 % 1009,6 hPa 0,0 mm 7,5 km/h (2 Bft) N-NO 22 5 min 8,2 C 7,2 km/h (2 Bft)
05.04.2016 12:55 19,8 C 25,4 C 47 % 1009,6 hPa 0,0 mm 6,0 km/h (2 Bft) W 270 5 min 8,2 C 11,0 km/h (2 Bft)
05.04.2016 13:00 19,9 C 25,0 C 47 % 1009,6 hPa 0,0 mm 6,9 km/h (2 Bft) N-NW 337 5 min 8,3 C 3,6 km/h (1 Bft)
05.04.2016 13:05 20,2 C 25,2 C 46 % 1009,6 hPa 0,0 mm 8,6 km/h (2 Bft) W 270 5 min 8,2 C 9,5 km/h (2 Bft)
05.04.2016 13:10 20,1 C 24,9 C 45 % 1010,0 hPa 0,0 mm 8,0 km/h (2 Bft) W-SW 247 5 min 7,8 C 13,7 km/h (3 Bft)
05.04.2016 13:15 20,3 C 24,7 C 46 % 1010,0 hPa 0,0 mm 9,2 km/h (2 Bft) NW 315 5 min 8,3 C 7,7 km/h (2 Bft)
05.04.2016 13:20 20,6 C 24,8 C 46 % 1010,0 hPa 0,0 mm 7,5 km/h (2 Bft) N 360 0 min 8,6 C 7,5 km/h (2 Bft)
05.04.2016 13:25 20,3 C 24,7 C 44 % 1010,0 hPa 0,0 mm 5,4 km/h (1 Bft) W-SW 247 5 min 7,6 C 6,9 km/h (2 Bft)
05.04.2016 13:30 20,3 C 24,3 C 45 % 1010,1 hPa 0,0 mm 6,6 km/h (2 Bft) W 270 0 min 8,0 C 12,5 km/h (3 Bft)
05.04.2016 13:35 20,3 C 23,6 C 45 % 1010,1 hPa 0,0 mm 7,5 km/h (2 Bft) NW 315 0 min 8,0 C 5,4 km/h (1 Bft)
05.04.2016 13:40 20,4 C 23,3 C 45 % 1010,1 hPa 0,0 mm 8,0 km/h (2 Bft) W 270 0 min 8,1 C 8,9 km/h (2 Bft)
05.04.2016 13:45 20,6 C 23,2 C 45 % 1010,1 hPa 0,0 mm 7,7 km/h (2 Bft) NW 315 0 min 8,2 C 5,1 km/h (1 Bft)
05.04.2016 13:50 21,0 C 23,7 C 45 % 1009,9 hPa 0,0 mm 8,0 km/h (2 Bft) N-NO 22 0 min 8,6 C 11,6 km/h (2 Bft)
05.04.2016 13:55 21,2 C 24,3 C 45 % 1009,9 hPa 0,0 mm 7,7 km/h (2 Bft) NW 315 0 min 8,8 C 22,1 km/h (4 Bft)
05.04.2016 14:00 21,3 C 25,0 C 46 % 1009,9 hPa 0,0 mm 7,7 km/h (2 Bft) W-SW 247 0 min 9,2 C 0,0 km/h (0 Bft)
05.04.2016 14:05 21,6 C 25,9 C 45 % 1009,9 hPa 0,0 mm 5,7 km/h (1 Bft) NW 315 5 min 9,2 C 14,3 km/h (3 Bft)
05.04.2016 14:10 21,4 C 25,8 C 44 % 1009,9 hPa 0,0 mm 6,6 km/h (2 Bft) N 360 5 min 8,6 C 8,3 km/h (2 Bft)
05.04.2016 14:15 21,4 C 25,7 C 44 % 1009,9 hPa 0,0 mm 8,9 km/h (2 Bft) N-NO 22 5 min 8,6 C 6,0 km/h (2 Bft)
05.04.2016 14:20 21,4 C 25,8 C 44 % 1009,9 hPa 0,0 mm 7,7 km/h (2 Bft) W 270 5 min 8,6 C 0,0 km/h (0 Bft)
05.04.2016 14:25 21,3 C 26,0 C 44 % 1009,9 hPa 0,0 mm 5,1 km/h (1 Bft) O-NO 67 5 min 8,5 C 4,2 km/h (1 Bft)
05.04.2016 14:30 20,8 C 25,6 C 44 % 1009,8 hPa 0,0 mm 5,1 km/h (1 Bft) O-NO 67 5 min 8,1 C 7,5 km/h (2 Bft)
05.04.2016 14:35 21,0 C 25,7 C 45 % 1009,8 hPa 0,0 mm 6,0 km/h (2 Bft) W-NW 292 5 min 8,6 C 4,2 km/h (1 Bft)
05.04.2016 14:40 20,9 C 25,8 C 44 % 1009,8 hPa 0,0 mm 6,6 km/h (2 Bft) N-NO 22 5 min 8,2 C 11,9 km/h (2 Bft)
05.04.2016 14:45 20,2 C 24,3 C 44 % 1009,8 hPa 0,0 mm 9,2 km/h (2 Bft) N-NO 22 5 min 7,6 C 7,5 km/h (2 Bft)
05.04.2016 14:50 20,1 C 23,6 C 44 % 1009,5 hPa 0,0 mm 10,4 km/h (2 Bft) N-NO 22 5 min 7,5 C 13,7 km/h (3 Bft)
05.04.2016 14:55 20,0 C 23,0 C 45 % 1009,5 hPa 0,0 mm 8,9 km/h (2 Bft) O-NO 67 0 min 7,7 C 8,3 km/h (2 Bft)
05.04.2016 15:00 20,1 C 23,1 C 45 % 1009,5 hPa 0,0 mm 8,3 km/h (2 Bft) NO 45 0 min 7,8 C 8,0 km/h (2 Bft)
05.04.2016 15:05 20,2 C 23,2 C 46 % 1009,5 hPa 0,0 mm 8,6 km/h (2 Bft) NW 315 0 min 8,2 C 21,5 km/h (4 Bft)
05.04.2016 15:10 20,1 C 22,6 C 46 % 1009,4 hPa 0,0 mm 10,4 km/h (2 Bft) NW 315 0 min 8,1 C 12,2 km/h (2 Bft)
05.04.2016 15:15 20,0 C 22,3 C 46 % 1009,4 hPa 0,0 mm 11,3 km/h (2 Bft) NW 315 0 min 8,0 C 10,7 km/h (2 Bft)
05.04.2016 15:20 20,1 C 22,3 C 47 % 1009,4 hPa 0,0 mm 9,8 km/h (2 Bft) NW 315 0 min 8,4 C 20,9 km/h (4 Bft)
05.04.2016 15:25 19,9 C 21,8 C 47 % 1009,4 hPa 0,0 mm 9,5 km/h (2 Bft) N-NW 337 0 min 8,3 C 10,1 km/h (2 Bft)
05.04.2016 15:30 19,8 C 21,7 C 48 % 1009,1 hPa 0,0 mm 10,7 km/h (2 Bft) NW 315 0 min 8,5 C 12,8 km/h (3 Bft)
05.04.2016 15:33 19,8 C 21,7 C 48 % 1009,1 hPa 0,0 mm 10,7 km/h (2 Bft) NW 315 0 min 8,5 C 12,8 km/h (3 Bft)
05.04.2016 15:35 19,7 C 21,3 C 48 % 1009,1 hPa 0,0 mm 9,2 km/h (2 Bft) N-NW 337 0 min 8,4 C 0,0 km/h (0 Bft)
05.04.2016 15:40 19,7 C 21,5 C 48 % 1009,1 hPa 0,0 mm 8,6 km/h (2 Bft) W-NW 292 0 min 8,4 C 9,2 km/h (2 Bft)
05.04.2016 15:45 19,7 C 21,5 C 48 % 1009,1 hPa 0,0 mm 6,3 km/h (2 Bft) NW 315 0 min 8,4 C 9,8 km/h (2 Bft)
05.04.2016 15:50 19,7 C 21,5 C 48 % 1009,0 hPa 0,0 mm 6,6 km/h (2 Bft) NW 315 0 min 8,4 C 11,3 km/h (2 Bft)
05.04.2016 15:55 19,4 C 20,9 C 48 % 1009,0 hPa 0,0 mm 9,2 km/h (2 Bft) W 270 0 min 8,1 C 10,7 km/h (2 Bft)
05.04.2016 16:00 19,2 C 20,5 C 49 % 1009,0 hPa 0,0 mm 9,5 km/h (2 Bft) NO 45 0 min 8,2 C 6,3 km/h (2 Bft)
05.04.2016 16:05 19,1 C 20,5 C 49 % 1009,0 hPa 0,0 mm 6,6 km/h (2 Bft) W-SW 247 0 min 8,1 C 7,5 km/h (2 Bft)
05.04.2016 16:10 19,0 C 20,5 C 49 % 1008,9 hPa 0,0 mm 5,4 km/h (1 Bft) NW 315 0 min 8,0 C 16,7 km/h (3 Bft)
05.04.2016 16:15 18,9 C 20,1 C 50 % 1008,9 hPa 0,0 mm 7,5 km/h (2 Bft) NW 315 0 min 8,2 C 11,9 km/h (2 Bft)
05.04.2016 16:20 18,8 C 19,7 C 50 % 1008,9 hPa 0,0 mm 8,6 km/h (2 Bft) N-NW 337 0 min 8,2 C 6,0 km/h (2 Bft)
05.04.2016 16:25 18,6 C 19,3 C 50 % 1008,9 hPa 0,0 mm 8,6 km/h (2 Bft) NW 315 0 min 8,0 C 11,6 km/h (2 Bft)
05.04.2016 16:30 18,4 C 19,1 C 50 % 1008,8 hPa 0,0 mm 8,3 km/h (2 Bft) N-NW 337 0 min 7,8 C 9,8 km/h (2 Bft)
05.04.2016 16:35 18,3 C 18,9 C 51 % 1008,8 hPa 0,0 mm 7,7 km/h (2 Bft) NW 315 0 min 8,0 C 15,5 km/h (3 Bft)
05.04.2016 16:40 18,1 C 18,6 C 52 % 1008,8 hPa 0,0 mm 8,9 km/h (2 Bft) W 270 0 min 8,1 C 8,3 km/h (2 Bft)
05.04.2016 16:45 17,9 C 18,3 C 52 % 1008,8 hPa 0,0 mm 10,4 km/h (2 Bft) N-NW 337 0 min 7,9 C 13,7 km/h (3 Bft)
05.04.2016 16:50 17,8 C 18,2 C 53 % 1008,9 hPa 0,0 mm 8,9 km/h (2 Bft) NW 315 0 min 8,1 C 11,0 km/h (2 Bft)
05.04.2016 16:55 17,6 C 18,1 C 53 % 1008,9 hPa 0,0 mm 8,3 km/h (2 Bft) W-NW 292 0 min 7,9 C 8,9 km/h (2 Bft)
05.04.2016 17:00 17,6 C 18,1 C 53 % 1008,9 hPa 0,0 mm 8,3 km/h (2 Bft) NW 315 0 min 7,9 C 7,7 km/h (2 Bft)
05.04.2016 17:05 17,4 C 17,9 C 54 % 1008,9 hPa 0,0 mm 8,0 km/h (2 Bft) N-NW 337 0 min 8,0 C 7,7 km/h (2 Bft)
05.04.2016 17:10 17,4 C 17,9 C 54 % 1009,0 hPa 0,0 mm 7,2 km/h (2 Bft) N-NO 22 0 min 8,0 C 3,6 km/h (1 Bft)
05.04.2016 17:15 17,3 C 17,9 C 54 % 1009,0 hPa 0,0 mm 5,4 km/h (1 Bft) N-NW 337 0 min 7,9 C 9,8 km/h (2 Bft)
05.04.2016 17:20 17,2 C 17,7 C 55 % 1009,0 hPa 0,0 mm 5,1 km/h (1 Bft) NW 315 0 min 8,1 C 3,6 km/h (1 Bft)
05.04.2016 17:25 17,2 C 17,5 C 55 % 1009,0 hPa 0,0 mm 6,0 km/h (2 Bft) NW 315 0 min 8,1 C 8,3 km/h (2 Bft)
05.04.2016 17:30 17,0 C 17,3 C 56 % 1009,1 hPa 0,0 mm 5,4 km/h (1 Bft) W-NW 292 0 min 8,2 C 5,7 km/h (1 Bft)
05.04.2016 17:35 16,7 C 17,1 C 56 % 1009,1 hPa 0,0 mm 6,6 km/h (2 Bft) NW 315 0 min 7,9 C 8,3 km/h (2 Bft)
05.04.2016 17:40 16,6 C 16,9 C 56 % 1009,1 hPa 0,0 mm 6,3 km/h (2 Bft) W-SW 247 0 min 7,8 C 6,0 km/h (2 Bft)
05.04.2016 17:45 16,4 C 16,7 C 57 % 1009,1 hPa 0,0 mm 5,4 km/h (1 Bft) N-NO 22 0 min 7,9 C 7,5 km/h (2 Bft)
05.04.2016 17:50 16,3 C 16,5 C 57 % 1009,1 hPa 0,0 mm 5,7 km/h (1 Bft) NW 315 0 min 7,8 C 9,8 km/h (2 Bft)
05.04.2016 17:55 16,1 C 16,3 C 57 % 1009,1 hPa 0,0 mm 8,3 km/h (2 Bft) NO 45 0 min 7,6 C 10,7 km/h (2 Bft)
05.04.2016 18:00 16,0 C 16,1 C 57 % 1009,1 hPa 0,0 mm 6,9 km/h (2 Bft) N-NW 337 0 min 7,5 C 0,0 km/h (0 Bft)
05.04.2016 18:05 15,9 C 16,1 C 58 % 1009,1 hPa 0,0 mm 4,5 km/h (1 Bft) N-NW 337 0 min 7,6 C 8,0 km/h (2 Bft)
05.04.2016 18:10 15,9 C 16,0 C 58 % 1009,2 hPa 0,0 mm 3,9 km/h (1 Bft) N-NW 337 0 min 7,6 C 3,3 km/h (1 Bft)
05.04.2016 18:15 15,8 C 15,9 C 58 % 1009,2 hPa 0,0 mm 3,3 km/h (1 Bft) NW 315 0 min 7,6 C 4,5 km/h (1 Bft)
05.04.2016 18:20 15,8 C 15,9 C 58 % 1009,2 hPa 0,0 mm 2,4 km/h (1 Bft) NW 315 0 min 7,6 C 3,9 km/h (1 Bft)
05.04.2016 18:25 15,7 C 15,8 C 59 % 1009,2 hPa 0,0 mm 2,1 km/h (1 Bft) W-NW 292 0 min 7,7 C 0,0 km/h (0 Bft)
05.04.2016 18:30 15,7 C 15,7 C 59 % 1009,4 hPa 0,0 mm 2,7 km/h (1 Bft) W 270 0 min 7,7 C 6,9 km/h (2 Bft)
05.04.2016 18:33 15,5 C 15,5 C 59 % 1009,4 hPa 0,0 mm 4,8 km/h (1 Bft) W-NW 292 0 min 7,5 C 12,8 km/h (3 Bft)
05.04.2016 18:34 15,5 C 15,5 C 59 % 1009,4 hPa 0,0 mm 4,8 km/h (1 Bft) W-NW 292 0 min 7,5 C 12,8 km/h (3 Bft)
05.04.2016 18:35 15,5 C 15,5 C 59 % 1009,4 hPa 0,0 mm 4,8 km/h (1 Bft) W-NW 292 0 min 7,5 C 12,8 km/h (3 Bft)
05.04.2016 18:40 15,4 C 15,5 C 59 % 1009,4 hPa 0,0 mm 5,7 km/h (1 Bft) W 270 0 min 7,4 C 8,9 km/h (2 Bft)
05.04.2016 18:45 15,2 C 15,2 C 59 % 1009,4 hPa 0,0 mm 5,1 km/h (1 Bft) W 270 0 min 7,2 C 5,7 km/h (1 Bft)
05.04.2016 18:50 15,1 C 15,1 C 60 % 1009,6 hPa 0,0 mm 4,5 km/h (1 Bft) W 270 0 min 7,4 C 4,8 km/h (1 Bft)
05.04.2016 18:55 14,9 C 14,9 C 60 % 1009,6 hPa 0,0 mm 3,0 km/h (1 Bft) W 270 0 min 7,2 C 0,0 km/h (0 Bft)
05.04.2016 19:00 14,7 C 14,8 C 61 % 1009,6 hPa 0,0 mm 2,7 km/h (1 Bft) W 270 0 min 7,3 C 4,5 km/h (1 Bft)
05.04.2016 19:05 14,6 C 14,6 C 61 % 1009,6 hPa 0,0 mm 4,2 km/h (1 Bft) W 270 0 min 7,2 C 12,2 km/h (2 Bft)
05.04.2016 19:10 14,5 C 14,5 C 61 % 1009,6 hPa 0,0 mm 5,1 km/h (1 Bft) W-SW 247 0 min 7,1 C 3,9 km/h (1 Bft)
05.04.2016 19:15 14,3 C 14,3 C 63 % 1009,6 hPa 0,0 mm 6,0 km/h (2 Bft) SW 225 0 min 7,4 C 8,6 km/h (2 Bft)
05.04.2016 19:20 14,1 C 14,1 C 62 % 1009,6 hPa 0,0 mm 5,7 km/h (1 Bft) W 270 0 min 6,9 C 7,2 km/h (2 Bft)
05.04.2016 19:25 13,9 C 13,9 C 63 % 1009,6 hPa 0,0 mm 4,8 km/h (1 Bft) W 270 0 min 7,0 C 6,6 km/h (2 Bft)
05.04.2016 19:30 13,8 C 13,8 C 63 % 1009,9 hPa 0,0 mm 5,4 km/h (1 Bft) W 270 0 min 6,9 C 8,9 km/h (2 Bft)
05.04.2016 19:35 13,4 C 13,4 C 64 % 1009,9 hPa 0,0 mm 3,6 km/h (1 Bft) W 270 0 min 6,7 C 0,0 km/h (0 Bft)
05.04.2016 19:40 13,3 C 13,3 C 65 % 1009,9 hPa 0,0 mm 2,4 km/h (1 Bft) W 270 0 min 6,9 C 6,9 km/h (2 Bft)
05.04.2016 19:45 13,3 C 13,2 C 66 % 1009,9 hPa 0,0 mm 1,5 km/h (1 Bft) W 270 0 min 7,1 C 0,0 km/h (0 Bft)
05.04.2016 19:50 13,3 C 13,2 C 66 % 1010,0 hPa 0,0 mm 1,5 km/h (1 Bft) W-SW 247 0 min 7,1 C 3,9 km/h (1 Bft)
05.04.2016 19:55 13,3 C 13,2 C 66 % 1010,0 hPa 0,0 mm 1,2 km/h (1 Bft) W 270 0 min 7,1 C 0,0 km/h (0 Bft)
05.04.2016 20:00 13,3 C 13,2 C 66 % 1010,0 hPa 0,0 mm 1,5 km/h (1 Bft) W-SW 247 0 min 7,1 C 0,0 km/h (0 Bft)
05.04.2016 20:05 13,3 C 13,2 C 67 % 1010,0 hPa 0,0 mm 3,3 km/h (1 Bft) W 270 0 min 7,3 C 7,5 km/h (2 Bft)
05.04.2016 20:10 13,0 C 13,0 C 67 % 1010,4 hPa 0,0 mm 4,2 km/h (1 Bft) W-SW 247 0 min 7,0 C 0,0 km/h (0 Bft)
05.04.2016 20:15 12,8 C 12,8 C 68 % 1010,4 hPa 0,0 mm 1,8 km/h (1 Bft) W 270 0 min 7,0 C 5,4 km/h (1 Bft)
05.04.2016 20:20 12,8 C 12,8 C 68 % 1010,4 hPa 0,0 mm 2,1 km/h (1 Bft) W 270 0 min 7,0 C 4,5 km/h (1 Bft)
05.04.2016 20:25 12,6 C 12,6 C 68 % 1010,4 hPa 0,0 mm 4,2 km/h (1 Bft) W 270 0 min 6,9 C 5,7 km/h (1 Bft)
05.04.2016 20:30 12,4 C 12,4 C 69 % 1010,5 hPa 0,0 mm 3,9 km/h (1 Bft) W 270 0 min 6,9 C 6,0 km/h (2 Bft)
05.04.2016 20:35 12,2 C 12,2 C 69 % 1010,5 hPa 0,0 mm 2,7 km/h (1 Bft) W-SW 247 0 min 6,7 C 3,6 km/h (1 Bft)
05.04.2016 20:40 12,1 C 12,1 C 69 % 1010,5 hPa 0,0 mm 1,8 km/h (1 Bft) W 270 0 min 6,6 C 0,0 km/h (0 Bft)
05.04.2016 20:45 12,0 C 11,9 C 70 % 1010,5 hPa 0,0 mm 1,5 km/h (1 Bft) W-SW 247 0 min 6,7 C 4,8 km/h (1 Bft)
05.04.2016 20:50 11,9 C 11,8 C 71 % 1010,8 hPa 0,0 mm 1,8 km/h (1 Bft) W-SW 247 0 min 6,8 C 5,1 km/h (1 Bft)
05.04.2016 20:55 12,0 C 11,9 C 71 % 1010,8 hPa 0,0 mm 2,4 km/h (1 Bft) W 270 0 min 6,9 C 0,0 km/h (0 Bft)
05.04.2016 21:00 12,0 C 11,9 C 71 % 1010,8 hPa 0,0 mm 2,1 km/h (1 Bft) W 270 0 min 6,9 C 3,9 km/h (1 Bft)
05.04.2016 21:05 12,2 C 12,1 C 72 % 1010,8 hPa 0,0 mm 2,4 km/h (1 Bft) W-SW 247 0 min 7,3 C 3,6 km/h (1 Bft)
05.04.2016 21:10 12,3 C 12,2 C 72 % 1011,1 hPa 0,0 mm 3,3 km/h (1 Bft) W-SW 247 0 min 7,4 C 3,9 km/h (1 Bft)
05.04.2016 21:15 12,4 C 12,3 C 72 % 1011,1 hPa 0,0 mm 4,2 km/h (1 Bft) S 180 0 min 7,5 C 5,4 km/h (1 Bft)
05.04.2016 21:20 12,6 C 12,5 C 72 % 1011,1 hPa 0,0 mm 3,9 km/h (1 Bft) S-SO 157 0 min 7,7 C 3,6 km/h (1 Bft)
05.04.2016 21:25 12,6 C 12,6 C 73 % 1011,1 hPa 0,0 mm 4,5 km/h (1 Bft) S-SW 202 0 min 7,9 C 6,9 km/h (2 Bft)
05.04.2016 21:30 12,6 C 12,6 C 72 % 1011,5 hPa 0,0 mm 4,5 km/h (1 Bft) S-SO 157 0 min 7,7 C 3,6 km/h (1 Bft)
05.04.2016 21:33 12,6 C 12,6 C 72 % 1011,5 hPa 0,0 mm 2,1 km/h (1 Bft) S 180 0 min 7,7 C 0,0 km/h (0 Bft)
05.04.2016 21:34 12,6 C 12,6 C 72 % 1011,5 hPa 0,0 mm 2,1 km/h (1 Bft) S 180 0 min 7,7 C 0,0 km/h (0 Bft)
05.04.2016 21:35 12,6 C 12,6 C 72 % 1011,5 hPa 0,0 mm 2,1 km/h (1 Bft) S 180 0 min 7,7 C 0,0 km/h (0 Bft)
05.04.2016 21:40 12,6 C 12,6 C 72 % 1011,5 hPa 0,0 mm 0,9 km/h (0 Bft) W-SW 247 0 min 7,7 C 4,2 km/h (1 Bft)
05.04.2016 21:45 12,6 C 12,6 C 72 % 1011,5 hPa 0,0 mm 2,1 km/h (1 Bft) SW 225 0 min 7,7 C 6,9 km/h (2 Bft)
05.04.2016 21:50 12,5 C 12,5 C 72 % 1011,5 hPa 0,0 mm 3,3 km/h (1 Bft) W-SW 247 0 min 7,6 C 4,2 km/h (1 Bft)
05.04.2016 21:55 12,5 C 12,5 C 71 % 1011,5 hPa 0,0 mm 2,4 km/h (1 Bft) W-NW 292 0 min 7,4 C 0,0 km/h (0 Bft)
05.04.2016 22:00 12,4 C 12,5 C 71 % 1011,5 hPa 0,0 mm 1,2 km/h (1 Bft) W-SW 247 0 min 7,3 C 3,0 km/h (1 Bft)
05.04.2016 22:05 12,5 C 12,5 C 72 % 1011,5 hPa 0,0 mm 3,0 km/h (1 Bft) W 270 0 min 7,6 C 6,3 km/h (2 Bft)
05.04.2016 22:10 12,6 C 12,6 C 72 % 1011,7 hPa 0,0 mm 6,0 km/h (2 Bft) NW 315 0 min 7,7 C 8,9 km/h (2 Bft)
05.04.2016 22:15 12,6 C 12,6 C 72 % 1011,7 hPa 0,0 mm 9,2 km/h (2 Bft) W 270 0 min 7,7 C 23,8 km/h (4 Bft)
05.04.2016 22:20 12,6 C 12,6 C 73 % 1011,7 hPa 0,0 mm 10,4 km/h (2 Bft) W 270 0 min 7,9 C 17,9 km/h (3 Bft)
05.04.2016 22:25 12,2 C 12,1 C 72 % 1011,7 hPa 0,0 mm 11,6 km/h (2 Bft) N-NW 337 0 min 7,3 C 10,7 km/h (2 Bft)
05.04.2016 22:30 12,0 C 12,0 C 73 % 1011,9 hPa 0,0 mm 11,0 km/h (2 Bft) NW 315 0 min 7,3 C 11,3 km/h (2 Bft)
05.04.2016 22:35 11,8 C 11,8 C 73 % 1011,9 hPa 0,0 mm 8,3 km/h (2 Bft) NW 315 0 min 7,1 C 16,7 km/h (3 Bft)
05.04.2016 22:40 11,7 C 11,7 C 73 % 1011,9 hPa 0,0 mm 8,9 km/h (2 Bft) W 270 0 min 7,0 C 10,7 km/h (2 Bft)
05.04.2016 22:45 11,5 C 11,4 C 74 % 1011,9 hPa 0,0 mm 10,1 km/h (2 Bft) W 270 0 min 7,0 C 11,6 km/h (2 Bft)
05.04.2016 22:50 11,4 C 11,3 C 74 % 1012,4 hPa 0,0 mm 10,4 km/h (2 Bft) W-SW 247 0 min 6,9 C 18,2 km/h (3 Bft)
05.04.2016 22:55 11,3 C 11,2 C 74 % 1012,4 hPa 0,0 mm 9,5 km/h (2 Bft) W-SW 247 0 min 6,8 C 12,5 km/h (3 Bft)
05.04.2016 23:00 11,3 C 11,2 C 74 % 1012,4 hPa 0,0 mm 7,5 km/h (2 Bft) W 270 0 min 6,8 C 6,9 km/h (2 Bft)
05.04.2016 23:05 11,2 C 11,2 C 74 % 1012,4 hPa 0,0 mm 7,2 km/h (2 Bft) W-SW 247 0 min 6,7 C 8,9 km/h (2 Bft)
05.04.2016 23:10 11,1 C 11,1 C 74 % 1012,5 hPa 0,0 mm 7,2 km/h (2 Bft) W 270 0 min 6,6 C 13,1 km/h (3 Bft)
05.04.2016 23:15 11,1 C 11,0 C 73 % 1012,5 hPa 0,0 mm 4,8 km/h (1 Bft) W 270 0 min 6,4 C 6,6 km/h (2 Bft)
05.04.2016 23:20 11,0 C 10,9 C 73 % 1012,5 hPa 0,0 mm 3,0 km/h (1 Bft) NW 315 0 min 6,4 C 0,0 km/h (0 Bft)
05.04.2016 23:25 11,0 C 10,9 C 73 % 1012,5 hPa 0,0 mm 1,5 km/h (1 Bft) W-SW 247 0 min 6,4 C 5,4 km/h (1 Bft)
05.04.2016 23:30 11,0 C 10,9 C 73 % 1012,8 hPa 0,0 mm 2,4 km/h (1 Bft) S 180 0 min 6,4 C 0,0 km/h (0 Bft)
05.04.2016 23:35 10,9 C 10,8 C 73 % 1012,8 hPa 0,0 mm 3,0 km/h (1 Bft) N-NW 337 0 min 6,3 C 0,0 km/h (0 Bft)
05.04.2016 23:40 10,9 C 10,8 C 74 % 1012,8 hPa 0,0 mm 1,8 km/h (1 Bft) W-SW 247 0 min 6,5 C 8,9 km/h (2 Bft)
05.04.2016 23:45 10,8 C 10,7 C 74 % 1012,8 hPa 0,0 mm 1,5 km/h (1 Bft) S 180 0 min 6,4 C 3,6 km/h (1 Bft)
05.04.2016 23:50 10,8 C 10,7 C 74 % 1012,8 hPa 0,0 mm 2,7 km/h (1 Bft) SW 225 0 min 6,4 C 3,0 km/h (1 Bft)
05.04.2016 23:55 10,8 C 10,7 C 74 % 1012,8 hPa 0,0 mm 2,7 km/h (1 Bft) SW 225 0 min 6,4 C 8,6 km/h (2 Bft)
_ Min-Zeit 05:45 05:55 14:50 06:25 - 09:00 - - - 05:45 23:35
Minimum _ 4,3 C 4,3 C 44 % 1005,9 hPa - 0,0 km/h (0 Bft) - - - 0,8 C 0,0 km/h (0 Bft)
_ Max-Zeit 14:05 14:25 06:35 23:55 23:55 22:25 - - 14:50 14:00 22:15
Maximum _ 21,6 C 26,0 C 79 % 1012,8 hPa 0,0 mm 11,6 km/h
N-NW (2 Bft)
- - 5 min 9,2 C 23,8 km/h
W (4 Bft)
Durchschnitt _ 13,2 C 14,3 C 61 % 1008,5 hPa #0,0 mm 3,7 km/h (1 Bft) W - #4:08 h 5,7 C 4,9 km/h (1 Bft)